Location: Lake Arresoe
(56.0000°N, 12.5000°E)
Time: 11:29:17
(UTC+02:00)

Resurs 1-4 Rocket - Pass Details

Date: 19 August 2020
Orbit: 799 x 815 km, 98.6° (Epoch: 23 September)

Event Time Altitude Azimuth Distance (km) Brightness Sun altitude
Rises 01:51:53 0° 22° (NNE) 3,330 6.8 -20.8°
Reaches altitude 10° 01:54:37 10° 34° (NE) 2,392 5.5 -20.8°
Maximum altitude 01:59:03 27° 91° (E) 1,517 3.6 -20.7°
Enters shadow 02:01:36 19° 132° (SE) 1,853 3.7 -20.6°
